Puerto Limon, Costa Rica

8:53 PM CST on February 25, 2017 (GMT -0600)
Puerto Limon

Weather History for MRLM - November, 2012

Change the Weather History Date:

Thursday, November 8, 2012

  Actual Average Record
Temperature  
Mean Temperature 80 °F -  
Max Temperature 87 °F 81 °F 88 °F (2015)
Min Temperature 72 °F 73 °F 69 °F (2004)
Cooling Degree Days 14    
Growing Degree Days 30 (Base 50)    
Moisture  
Dew Point 73 °F    
Average Humidity 82    
Maximum Humidity 94    
Minimum Humidity 56    
Precipitation  
Precipitation 0.47 in 0.49 in - ()
Sea Level Pressure  
Sea Level Pressure 29.90 in    
Wind  
Wind Speed 5 mph ()    
Max Wind Speed 13 mph    
Max Gust Speed -    
Visibility 6.0 miles    
Events Rain    
Averages and records for this station are not official NWS values.
T = Trace of Precipitation, MM = Missing Value Source: Averaged Metar Reports

Daily Weather History Graph

Daily Weather History Graph

Search for Another Location

Airport or City:

Trip Planner

Search our weather history database for the weather conditions in past years. The results will help you decide how hot, cold, wet, or windy it might be!

Date:

Astronomy

Nov. 08, 2012 Rise Set
Actual Time 5:24 AM CST 5:07 PM CST
Civil Twilight 5:02 AM CST 5:29 PM CST
Nautical Twilight 4:37 AM CST 5:54 PM CST
Astronomical Twilight 4:12 AM CST 6:19 PM CST
Moon 12:21 AM CST (11/8) 12:51 PM CST (11/8)
Length of Visible Light 12h 26m
Length of Day
11h 42m
Waning Crescent, 32% of the Moon is Illuminated
Nov 8
Waning Crescent
Nov 13
New
Nov 20
First Quarter
Nov 28
Full
Dec 6
Last Quarter

Hourly Weather History & Observations

Time (CST) Temp. Heat Index Dew Point Humidity Pressure Visibility Wind Dir Wind Speed Gust Speed Precip Events Conditions
6:00 AM 76 °F - 73 °F 86% 29.93 in 9 mi NW 4.6 mph - -   Overcast
6:00 AM 75.2 °F - 73.4 °F 94% 29.92 in 6.2 mi NW 4.6 mph - N/A   Mostly Cloudy
7:00 AM 75.2 °F - 73.4 °F 94% 29.93 in 6.2 mi WNW 4.6 mph - N/A   Mostly Cloudy
8:00 AM 77.0 °F - 73.4 °F 89% 29.94 in 6.2 mi NW 3.5 mph - N/A   Mostly Cloudy
9:00 AM 79 °F - 73 °F 76% 29.96 in 8 mi NNW 8.1 mph - - Rain Light Rain
9:00 AM 78.8 °F - 73.4 °F 83% 29.95 in 6.2 mi NNW 8.1 mph - N/A   Heavy Drizzle
10:00 AM 78.8 °F - 73.4 °F 83% 29.94 in 6.2 mi WNW 5.8 mph - N/A   Heavy Drizzle
11:00 AM 80.6 °F 85.4 °F 73.4 °F 79% 29.92 in 6.2 mi WNW 5.8 mph - N/A   Mostly Cloudy
12:00 PM 85 °F - 72 °F 56% 29.90 in 9 mi NW 4.6 mph - -   Overcast
12:00 PM 86.0 °F 91.8 °F 71.6 °F 62% 29.88 in 6.2 mi NW 4.6 mph - N/A   Scattered Clouds
1:00 PM 84.2 °F 89.6 °F 71.6 °F 66% 29.86 in 6.2 mi ENE 3.5 mph - N/A   Mostly Cloudy
2:00 PM 84.2 °F 90.9 °F 73.4 °F 70% 29.84 in 6.2 mi NNW 8.1 mph - N/A   Scattered Clouds
3:00 PM 81 °F - 75 °F 77% 29.86 in 5 mi NNE 11.5 mph - -   Overcast
3:00 PM 80.6 °F 86.2 °F 75.2 °F 84% 29.84 in 5.0 mi NNE 11.5 mph - N/A   Drizzle
3:40 PM 77.0 °F - 75.2 °F 94% 29.85 in 0.6 mi ENE 10.4 mph - N/A Rain Heavy Rain
4:00 PM 77.0 °F - 75.2 °F 94% 29.85 in 2.5 mi ENE 12.7 mph - N/A Rain Rain
5:00 PM 75.2 °F - 73.4 °F 94% 29.86 in 6.2 mi SW 4.6 mph - N/A   Drizzle
6:00 PM 76 °F - 74 °F 92% 29.89 in 6 mi Calm Calm - - Rain Light Rain
6:00 PM 75.2 °F - 73.4 °F 94% 29.89 in 6.2 mi Calm Calm - N/A Rain Rain